CZ-6A DEB

Satellite information

Favourite Embed

Satellite Type and Status

DEBRISIN ORBIT

Key statistics

Satellite CZ-6A DEB at a glance.

Uptime

494

Days in orbit

Revolutions

≈ 14.3

Per day

Orbit

LEO

Low Earth Orbit

Inclination

89.0

Latest

Satellite identification and parameters

Extended collection of information and parameters for CZ-6A DEB.

Object identification

Identified? True

Debris? True

Object name: CZ-6A DEB

International designator: 2024-140SM

Object number (NORAD): 61276

Object ID (CCSDS): 61276

Country: PEOPLES REPUBLIC OF CHINA (PRC)

Current information (Y/N): Y

RCS size: SMALL

Orbital parameters

Period: 100.949 minutes

Inclination: 89.0071 deg

SMA: 7181.713 km

Apoapsis: 823.618 km

Periapsis: 783.537 km

RAAN: 295.708 deg

Eccentricy: 0.0027905

Argument of periapsis: 90.3569 deg

Mean anomaly: 270.0822 deg

Mean motion: 14.26463734 rev/day

Mean motion (dot): 0.00003127 rev/day2

B* drag term: 0.0012884 1/REarth

Two-line elements (TLE)

Creation date: Dec. 12, 2025, 7:16 a.m.

Reference frame: TEME

Reference center: EARTH

Epoch: Dec. 11, 2025, 9:09 p.m. UTC

TLE line 0: 0 CZ-6A DEB

TLE line 1: 1 61276U 24140SM 25345.88193507 .00003127 00000-0 12884-2 0 9991

TLE line 2: 2 61276 89.0071 295.7080 0027905 90.3569 270.0822 14.26463734 67302

Live tracking on map

Real-time ground track for satellite CZ-6A DEB.

In-orbit conjunctions

A list of the most updated potential collisions computed for object CZ-6A DEB.

Target Orbit TCA Probability of collision Miss distance Type
IRIDIUM 33 DEB LEO 2025-09-13 04:46:24 0.0002281634 75.0 (m) DEBRIS
SAFIR 2 SSO 2025-04-10 06:20:17 0.001213255 42.0 (m) PAYLOAD
SAFIR 2 SSO 2025-04-10 04:39:12 0.0003818049 921.0 (m) PAYLOAD
FENGYUN 1C DEB SSO 2025-02-26 21:07:04 0.0001997343 573.0 (m) DEBRIS
IRIDIUM 33 DEB LEO 2025-02-09 17:06:06 0.0003934275 434.0 (m) DEBRIS

Associated space launch

18 Low Earth Orbit communication satellites with Ku, Q and V band payloads for the G60 constellation operated by Shanghai Spacecom Satellite Technology (SSST) with funding backed by the Shanghai local government. Initial constellation will consist of 1296 satellites by 2027 with long term plans to expand it to 12000 satellites.

CZ-6A DEB was lifted into orbit during the mission ‘Long March 6A | G60 Polar Group 01’, on board a Long March 6A space rocket.

The launch took place on Aug. 6, 2024, 6:42 a.m. from Launch Complex 9A.

For more information about the launch, click the button.

Launch to space Long March 6A | G60 Polar Group 01
Long March 6A | G60 Polar Group 01

Agency: N/A

Status: Launch Successful

Launch date: Aug. 6, 2024, 6:42 a.m. UTC

Rocket: Long March 6A

Launch pad: Launch Complex 9A

Location: Taiyuan Satellite Launch Center, People's Republic of China

...

Latest news about this satellite

News about space launch
Brightness of first Chinese broadband constellation satellites alarms astronomers

The first satellites of a Chinese broadband constellation are significantly brighter than those of Western systems, posing a new challenge for astronomers.

News about space launch
Chinese rocket stage breaks up into cloud of more than 700 pieces of space debris

HELSINKI — A Chinese Long March 6A rocket’s upper stage has fragmented into a cloud of over 700 pieces of space debris, adding to concerns about long-term orbital safety. China […]

News about space launch
China's Thousand Sails Megaconstellation Kicks Off with Dangerous Debris Field

China's Thousand Sails Megaconstellation Kicks Off with Dangerous Debris Field


Newsletter sign-up

Weekly statistics, charts and insights to help you stay on top of the space industry.